Flag for Albania Weather past 2 weeks in Tirana, Albania

Now
72 °F

Partly cloudy.


Feels Like: 69 °F
Forecast: 65 / 80 °F
Wind: 3 mph from West

Location: Tirana Airport

Current Time: Sep 1, 2014 at 10:58:06 PM

Latest Report: Sep 1, 2014 at 10:20 PM


Visibility: 5 mi

Pressure: 29.56 "Hg

Humidity: 88%

Dew point: 68 °F

Location of TiranaLocation

Historic Weather in Tirana — Graph

°F

Tirana temperature yesterday

Maximum temperature yesterday: 88 °F (at 2:50 PM)
Minimum temperature yesterday: 63 °F (at 5:20 AM)
Average temperature yesterday: 74 °F

Past Weeks' High & Low Weather Summary

 TemperatureHumidityPressure
High91 °F (Aug 28, 2:50 PM)94% (Aug 18, 2:50 AM)30.04 "Hg (Aug 18, 2:50 AM)
Low59 °F (Aug 19, 4:20 AM)25% (Aug 27, 11:50 AM)29.56 "Hg (Sep 1, 9:50 PM)
Average75 °F65%29.94 "Hg
* Reported Aug 17 9:20 PM — Sep 1 9:50 PM, Tirana, Weather by CustomWeather, © 2014

Note: Actual official high and low records may vary slightly from our data, if they occured in-between our weather recording intervals... More about our weather records

Advertising

Tirana weather history for previous 24 hours

 ConditionsComfort  
Time TempWeatherWind HumidityBarometerVisibility
9:50 PM
Sep 1
72 °FPartly cloudy.3 mph88%29.56 "HgN/A
9:20 PM73 °FPartly cloudy.5 mph83%29.59 "Hg4 mi
8:50 PM73 °FPassing clouds.5 mph83%29.59 "Hg4 mi
8:20 PM75 °FPartly cloudy.2 mph78%29.59 "Hg4 mi
7:50 PM77 °FBroken clouds.2 mph74%29.62 "Hg5 mi
6:50 PM77 °FScattered clouds.3 mphN/A29.62 "HgN/A
6:20 PM81 °FScattered clouds.3 mph62%29.62 "HgN/A
5:20 PM81 °FBroken clouds.6 mph58%29.62 "HgN/A
4:50 PM81 °FBroken clouds.6 mph58%29.65 "HgN/A
4:20 PM81 °FBroken clouds.6 mph58%29.65 "HgN/A
3:50 PM84 °FLight rain. Broken clouds.5 mph48%29.65 "HgN/A
3:20 PM82 °FBroken clouds.5 mph48%29.68 "HgN/A
2:50 PM82 °FBroken clouds.9 mph51%29.68 "HgN/A
2:20 PM82 °FBroken clouds.6 mph51%29.68 "HgN/A
1:50 PM82 °FBroken clouds.6 mph51%29.71 "HgN/A
1:20 PM81 °FThundershowers. Broken clouds.8 mph48%29.71 "HgN/A
12:50 PM84 °FThundershowers. Partly sunny.9 mph43%29.71 "HgN/A
12:20 PM86 °FBroken clouds.7 mph38%29.71 "HgN/A
11:50 AM90 °FBroken clouds.10 mph33%29.74 "HgN/A
11:20 AM88 °FScattered clouds.8 mph35%29.74 "HgN/A
10:50 AM86 °FScattered clouds.8 mph38%29.74 "HgN/A
10:20 AM84 °FScattered clouds.10 mph40%29.74 "HgN/A
9:50 AM82 °FScattered clouds.9 mph40%29.77 "HgN/A
9:20 AM81 °FScattered clouds.6 mph45%29.77 "HgN/A
8:50 AM79 °FPassing clouds.5 mph51%29.74 "HgN/A
8:20 AM75 °FPassing clouds.6 mph61%29.74 "HgN/A
7:50 AM72 °FPassing clouds.6 mph69%29.77 "HgN/A
7:20 AM70 °FPassing clouds.5 mph73%29.77 "HgN/A
6:50 AM66 °FPassing clouds.5 mph78%29.77 "HgN/A
6:20 AM68 °FPassing clouds.3 mph73%29.80 "HgN/A
5:50 AM68 °FPassing clouds.3 mph73%29.80 "HgN/A
5:20 AM68 °FPassing clouds.3 mph78%29.80 "HgN/A
4:50 AM66 °FPassing clouds.2 mph78%29.80 "HgN/A
4:20 AM66 °FPassing clouds.5 mph78%29.80 "HgN/A
3:50 AM66 °FPassing clouds.5 mph78%29.80 "HgN/A
3:20 AM66 °FPassing clouds.5 mph83%29.80 "HgN/A
2:50 AM66 °FPassing clouds.5 mph83%29.80 "HgN/A
2:20 AM66 °FPassing clouds.6 mph88%29.83 "HgN/A
1:50 AM66 °FPassing clouds.6 mph88%29.83 "HgN/A
1:20 AM66 °FClear.6 mph88%29.83 "Hg10 mi
12:50 AM66 °FClear.6 mph88%29.86 "Hg10 mi
12:20 AM68 °FClear.6 mph88%29.86 "Hg10 mi
11:20 PM
Aug 31
70 °FClear.3 mph83%29.86 "Hg10 mi
10:50 PM70 °FClear.2 mph83%29.86 "Hg10 mi
10:20 PM70 °FClear.5 mph83%29.86 "Hg10 mi
Weather by CustomWeather, © 2014

See weather overviewHow to use our weather pages